[[{"header":{"parameterUnit":"m.s-1","parameterCategory":1,"la1":30.2991,"la2":30.254,"lo1":-89.0895,"lo2":-89.0444,"dy":0.0017,"dx":0.0017,"nx":28,"ny":28,"refTime":"2025-08-28T21:00:00:Z","depth":0,"parameterNumber":2,"parameterNumberName":"U-component_of_WINDS"},"data":[0,0,0,0,0,0,0,0,0,0,0,0,0,0,0,0,0,0,0,0,0,0,0,0,0,0,0,0,0,0,0,0,0,0,0,0,0,0,0,0,0,0,0,0,0,0,0,0,0,0,0,0,0,0,0,0,0,0,-2.4564,-2.4564,0,-2.4635,-2.4635,-2.4636,-2.4628,-2.4627,-2.4626,-2.4625,-2.4692,-2.4695,-2.4698,0,0,0,0,0,0,0,0,0,0,0,0,0,-2.4418,-2.4421,-2.4564,-2.4564,-2.4565,-2.4635,-2.4635,-2.4636,-2.4628,-2.4627,-2.4625,-2.4624,-2.4691,-2.4695,-2.4698,0,0,0,0,0,0,0,0,0,0,0,0,0,-2.4484,-2.4422,-2.4563,-2.457,-2.4571,-2.4634,-2.4636,-2.4637,-2.4628,-2.4627,-2.4625,-2.4624,-2.469,-2.4694,-2.4699,-2.4758,0,0,-2.4712,-2.4713,0,0,0,0,0,0,0,0,-2.4481,-2.449,-2.4568,-2.4569,-2.4571,-2.4621,-2.4609,-2.4677,-2.4629,-2.4606,-2.4625,-2.4623,-2.467,-2.4675,-2.4692,-2.4762,-2.4765,-2.4712,-2.4715,-2.4716,-2.4718,0,0,0,0,0,0,0,-2.4476,-2.4487,-2.4591,-2.4569,-2.4571,-2.4568,-2.4576,-2.4622,-2.4646,-2.4608,-2.4608,-2.4617,-2.467,-2.4688,-2.4694,-2.4766,-2.4712,-2.4716,-2.4718,-2.472,-2.489,-2.4892,0,0,0,0,0,0,-2.447,-2.4483,-2.4589,-2.4594,-2.4521,-2.4572,-2.4581,-2.4606,-2.4646,-2.465,-2.4618,-2.4616,-2.4682,-2.4689,-2.4696,-2.4769,-2.4716,-2.472,-2.4723,-2.4888,-2.4891,-2.4893,0,0,0,0,0,0,-2.4467,-2.448,-2.4586,-2.4538,-2.4552,-2.4577,-2.4606,-2.4609,-2.4627,-2.4653,-2.4657,-2.4632,-2.4681,-2.469,-2.4744,-2.4772,-2.4722,-2.4726,-2.4886,-2.4889,-2.4892,-2.4916,0,0,0,0,0,0,-2.4463,-2.4479,-2.4502,-2.4539,-2.4554,-2.4633,-2.4607,-2.4611,-2.4635,-2.4633,-2.4668,-2.4672,-2.468,-2.4738,-2.4748,-2.4777,-2.4729,-2.4883,-2.4887,-2.4891,-2.4913,-2.4919,-2.4925,0,0,0,0,0,-2.4458,-2.4504,-2.4503,-2.4516,-2.4584,-2.4635,-2.4644,-2.4654,-2.4637,-2.466,-2.4678,-2.4671,-2.4768,-2.4743,-2.4755,-2.4785,-2.4882,-2.4886,-2.489,-2.491,-2.4918,-2.4925,0,0,0,0,0,0,-2.4467,-2.4509,-2.4508,-2.4568,-2.4599,-2.4634,-2.4663,-2.4662,-2.4696,-2.4692,-2.4702,-2.471,-2.4764,-2.4781,-2.4752,-2.4846,-2.4822,-2.4829,-2.4833,-2.4841,-2.4847,-2.4841,-2.4733,0,0,0,0,0,-2.4477,-2.4516,-2.455,-2.46,-2.4616,-2.4637,-2.466,-2.4666,-2.4696,-2.4708,-2.473,-2.4759,-2.4796,-2.482,-2.4856,-2.4917,-2.4924,-2.4944,-2.495,-2.4955,-2.4959,-2.4994,-2.5003,-2.4907,-2.4907,-2.4907,0,0,-2.4495,-2.4523,-2.4547,-2.4603,-2.4627,-2.4666,-2.4647,-2.4689,-2.4719,-2.4714,-2.4766,-2.4784,-2.4817,-2.4875,-2.4902,-2.489,-2.4989,-2.496,-2.4964,-2.4966,-2.5,-2.5009,-2.5017,-2.491,-2.491,-2.4909,0,0,-2.4549,-2.4575,-2.462,-2.4646,-2.4684,-2.4699,-2.471,-2.4747,-2.4759,-2.4812,-2.481,-2.4845,-2.4909,-2.4933,-2.4954,-2.5024,-2.5018,-2.5035,-2.5066,-2.5099,-2.5107,-2.5114,-2.5138,-2.5146,-2.5041,-2.5041,-2.5041,0,-2.4567,-2.4628,-2.4643,-2.4687,-2.4711,-2.4713,-2.4758,-2.4782,-2.4829,-2.4845,-2.4833,-2.4915,-2.4938,-2.5002,-2.5019,-2.5036,-2.5049,-2.5029,-2.5105,-2.5112,-2.5118,-2.5141,-2.515,-2.5042,-2.5042,-2.5042,-2.5042,0,-2.4648,-2.4691,-2.4722,-2.4771,-2.48,-2.4844,-2.4865,-2.4892,-2.4897,-2.4913,-2.4969,-2.4997,-2.5039,-2.5056,-2.5059,-2.5121,-2.5113,-2.5103,-2.5078,-2.5129,-2.5151,-2.516,-2.5045,-2.5044,-2.5044,-2.5043,0,0,-2.4704,-2.4765,-2.4776,-2.4799,-2.4844,-2.4876,-2.4922,-2.4966,-2.4989,-2.5023,-2.506,-2.5117,-2.5109,-2.5133,-2.514,-2.517,-2.5223,-2.5156,-2.5157,-2.5166,-2.5293,-2.5299,-2.5309,-2.5222,-2.5223,-2.5225,-2.529,0,-2.4762,-2.4843,-2.486,-2.493,-2.497,-2.4975,-2.5015,-2.5046,-2.5064,-2.51,-2.5119,-2.5159,-2.5145,-2.516,-2.519,-2.521,-2.5248,-2.5206,-2.5255,-2.5256,-2.5244,-2.532,-2.5325,-2.5385,-2.5299,-2.53,-2.5301,0,-2.4838,-2.4877,-2.4952,-2.4995,-2.5012,-2.5047,-2.509,-2.5125,-2.5162,-2.5173,-2.5202,-2.5207,-2.5255,-2.5231,-2.5296,-2.5267,-2.5289,-2.5303,-2.5305,-2.5307,-2.528,-2.5323,-2.5405,-2.5413,-2.5315,-2.5314,-2.5313,0,-2.4871,-2.4942,-2.4997,-2.5017,-2.5067,-2.5092,-2.5115,-2.515,-2.5176,-2.5214,-2.5231,-2.5274,-2.5296,-2.5329,-2.5345,-2.5327,-2.5409,-2.5387,-2.5418,-2.5418,-2.5432,-2.543,-2.5517,-2.5451,-2.545,-2.545,-2.545,0,-2.4931,-2.4976,-2.5012,-2.5045,-2.5097,-2.5117,-2.5167,-2.5189,-2.5221,-2.5258,-2.5266,-2.53,-2.5321,-2.5359,-2.5373,-2.5424,-2.5435,-2.5444,-2.5447,-2.5442,-2.5441,-2.5454,-2.5449,-2.5453,-2.5452,-2.5452,-2.5451,0,-2.4974,-2.5,-2.506,-2.5105,-2.5118,-2.5154,-2.5192,-2.5225,-2.5245,-2.5292,-2.5304,-2.5335,-2.538,-2.5401,-2.5456,-2.5466,-2.5524,-2.5525,-2.5512,-2.5513,-2.5542,-2.5539,-2.5638,-2.5652,-2.5579,-2.5579,-2.558,0,-2.5009,-2.5045,-2.5096,-2.5123,-2.5146,-2.5189,-2.5217,-2.524,-2.5268,-2.5316,-2.5342,-2.5389,-2.5426,-2.5499,-2.5525,-2.5568,-2.5568,-2.5601,-2.5574,-2.5569,-2.5567,-2.5564,-2.5567,-2.5604,-2.5604,-2.5605,-2.5606,0,-2.5069,-2.5082,-2.5123,-2.517,-2.5205,-2.5242,-2.5279,-2.53,-2.5328,-2.536,-2.5408,-2.5438,-2.5497,-2.5543,-2.5588,-2.561,-2.5612,-2.5615,-2.5624,-2.5618,-2.5608,-2.5613,-2.5523,-2.5611,-2.561,-2.561,-2.561,-2.5609,-2.5108,-2.5141,-2.5183,-2.5229,-2.5261,-2.5296,-2.5329,-2.5356,-2.5397,-2.5447,-2.5459,-2.5509,-2.5548,-2.561,-2.5634,-2.5674,-2.5666,-2.568,-2.5683,-2.5685,-2.5686,-2.5605,-2.5683,-2.5682,-2.5682,-2.5682,-2.5682,0,-2.5167,-2.5196,-2.5239,-2.5292,-2.5329,-2.5333,-2.5375,-2.5405,-2.545,-2.5487,-2.5526,-2.5582,-2.5628,-2.566,-2.5706,-2.5732,-2.5734,-2.5743,-2.574,-2.5745,-2.5691,-2.5678,-2.5741,-2.5741,-2.5741,-2.5741,-2.5741,-2.5741,-2.5202,-2.5258,-2.5276,-2.5348,-2.5376,-2.5428,-2.5452,-2.5484,-2.5514,-2.5578,-2.5617,-2.5639,-2.5674,-2.5724,-2.5766,-2.5775,-2.579,-2.5799,-2.5807,-2.5755,-2.5749,-2.5743,-2.573,-2.5803,-2.5803,-2.5858,-2.5858,-2.5858]},{"header":{"parameterUnit":"m.s-1","parameterCategory":1,"la1":30.2991,"la2":30.254,"lo1":-89.0895,"lo2":-89.0444,"dy":0.0017,"dx":0.0017,"nx":28,"ny":28,"refTime":"2025-08-28T21:00:00:Z","depth":0,"parameterNumber":3,"parameterNumberName":"V-component_of_WINDS"},"data":[0,0,0,0,0,0,0,0,0,0,0,0,0,0,0,0,0,0,0,0,0,0,0,0,0,0,0,0,0,0,0,0,0,0,0,0,0,0,0,0,0,0,0,0,0,0,0,0,0,0,0,0,0,0,0,0,0,0,0.4647,0.4647,0,0.4613,0.4613,0.4612,0.4569,0.4568,0.4568,0.4567,0.4532,0.4532,0.4532,0,0,0,0,0,0,0,0,0,0,0,0,0,0.4675,0.4674,0.4647,0.4646,0.4646,0.4613,0.4613,0.4612,0.4569,0.4568,0.4567,0.4567,0.4532,0.4532,0.4532,0,0,0,0,0,0,0,0,0,0,0,0,0,0.4654,0.4674,0.4647,0.4621,0.4618,0.4613,0.4613,0.4612,0.4569,0.4568,0.4567,0.4566,0.4533,0.4532,0.4532,0.455,0,0,0.453,0.453,0,0,0,0,0,0,0,0,0.4655,0.4653,0.4625,0.4622,0.4619,0.4594,0.461,0.4591,0.457,0.4588,0.4567,0.4566,0.4554,0.4552,0.4548,0.4549,0.4547,0.453,0.453,0.453,0.453,0,0,0,0,0,0,0,0.4657,0.4654,0.4633,0.4625,0.4621,0.4611,0.4606,0.4606,0.4577,0.4586,0.4583,0.4579,0.4552,0.4548,0.4546,0.4547,0.453,0.453,0.453,0.453,0.4562,0.4563,0,0,0,0,0,0,0.4662,0.4656,0.4635,0.4632,0.4635,0.4611,0.4606,0.4603,0.4577,0.4572,0.458,0.4578,0.4549,0.4547,0.4545,0.4566,0.453,0.453,0.4529,0.4561,0.4562,0.4564,0,0,0,0,0,0,0.4663,0.466,0.4636,0.4643,0.4639,0.4612,0.4609,0.4603,0.4599,0.4573,0.4567,0.4582,0.4548,0.4546,0.4549,0.4564,0.4529,0.4529,0.456,0.4561,0.4563,0.4607,0,0,0,0,0,0,0.4664,0.4661,0.4668,0.4644,0.4639,0.4641,0.4609,0.4603,0.4599,0.4595,0.4572,0.4568,0.4547,0.455,0.4549,0.4563,0.4529,0.4558,0.456,0.4562,0.4604,0.461,0.4615,0,0,0,0,0,0.4665,0.4681,0.4668,0.4666,0.4647,0.4642,0.4639,0.4616,0.46,0.4607,0.459,0.4568,0.4562,0.4551,0.4549,0.4563,0.4557,0.456,0.4562,0.4602,0.4609,0.4615,0,0,0,0,0,0,0.4708,0.4678,0.4663,0.4672,0.466,0.4635,0.4642,0.4624,0.4616,0.4612,0.4583,0.4578,0.4586,0.4575,0.4563,0.458,0.4557,0.4559,0.4587,0.4594,0.4599,0.4602,0.4528,0,0,0,0,0,0.4718,0.4717,0.469,0.4701,0.4696,0.467,0.4667,0.465,0.4636,0.4631,0.4614,0.4602,0.4597,0.4595,0.4589,0.4602,0.4597,0.461,0.4616,0.462,0.4623,0.463,0.4636,0.4572,0.4572,0.4572,0,0,0.474,0.4723,0.4724,0.4709,0.4698,0.4697,0.4666,0.4667,0.4666,0.4631,0.4634,0.4621,0.4605,0.4614,0.4617,0.4605,0.4639,0.4624,0.4627,0.4627,0.4633,0.4639,0.4645,0.4573,0.4573,0.4573,0,0,0.4779,0.4766,0.4774,0.4763,0.4746,0.4729,0.4731,0.4709,0.4699,0.4702,0.4676,0.4675,0.4667,0.4657,0.4651,0.4687,0.4668,0.4686,0.4714,0.4721,0.4726,0.4731,0.4745,0.475,0.4688,0.4689,0.4689,0,0.4808,0.4806,0.478,0.4783,0.4777,0.4745,0.4753,0.4744,0.4726,0.4724,0.471,0.47,0.4687,0.4694,0.4703,0.4699,0.47,0.4689,0.4728,0.4732,0.4736,0.4748,0.4753,0.4691,0.4691,0.469,0.469,0,0.4843,0.4842,0.4851,0.4835,0.483,0.4835,0.481,0.4809,0.4792,0.4776,0.478,0.4763,0.4754,0.4754,0.4737,0.4758,0.4751,0.4733,0.4709,0.4745,0.4756,0.4761,0.4694,0.4694,0.4693,0.4692,0,0,0.4909,0.4879,0.4882,0.4875,0.4854,0.4853,0.4857,0.4848,0.4847,0.4836,0.4839,0.4834,0.4817,0.481,0.4792,0.4798,0.4829,0.478,0.4779,0.479,0.4852,0.4867,0.4873,0.4816,0.4817,0.4817,0.4854,0,0.4945,0.495,0.4927,0.4938,0.4937,0.4907,0.4911,0.4899,0.4884,0.4882,0.4866,0.4863,0.484,0.4836,0.4841,0.4825,0.4841,0.4821,0.4819,0.4819,0.4825,0.4878,0.4893,0.4929,0.4858,0.4859,0.4859,0,0.4988,0.498,0.4991,0.497,0.4969,0.4972,0.4963,0.496,0.4946,0.4935,0.4928,0.4907,0.491,0.4887,0.489,0.4877,0.4875,0.4867,0.4867,0.4867,0.4842,0.488,0.4939,0.4945,0.4866,0.4865,0.4865,0,0.5037,0.5028,0.5033,0.5028,0.5003,0.5007,0.4997,0.4981,0.4977,0.4969,0.4966,0.4958,0.4954,0.4948,0.4926,0.4911,0.4932,0.4907,0.4924,0.4924,0.493,0.493,0.4991,0.4927,0.4927,0.4927,0.4927,0,0.508,0.5088,0.5055,0.5058,0.5067,0.504,0.5049,0.5036,0.5023,0.5024,0.4997,0.4998,0.4968,0.4967,0.4949,0.4955,0.4953,0.4945,0.494,0.4948,0.4949,0.4946,0.4944,0.4929,0.4928,0.4928,0.4928,0,0.5136,0.5113,0.5118,0.5094,0.5088,0.5096,0.5076,0.5078,0.5062,0.5064,0.5062,0.5037,0.5034,0.5011,0.5002,0.4991,0.5003,0.4993,0.5008,0.5005,0.5024,0.5023,0.5085,0.5092,0.5024,0.5025,0.5025,0,0.5165,0.5171,0.5148,0.5147,0.5138,0.5136,0.5132,0.5106,0.5103,0.5087,0.5092,0.5086,0.508,0.5076,0.5057,0.5051,0.5041,0.5063,0.504,0.5047,0.5042,0.5043,0.5043,0.5068,0.5069,0.507,0.5071,0,0.5221,0.5209,0.5205,0.5196,0.5192,0.5184,0.5175,0.5175,0.5146,0.5145,0.5141,0.5136,0.5127,0.5122,0.5112,0.5102,0.5082,0.5078,0.5082,0.509,0.5099,0.5095,0.5023,0.5077,0.5076,0.5076,0.5076,0.5075,0.5265,0.5269,0.5253,0.5249,0.5239,0.5231,0.5232,0.5217,0.5213,0.5204,0.5188,0.5187,0.5173,0.5157,0.5149,0.5147,0.5135,0.5141,0.5142,0.5144,0.5148,0.5098,0.5145,0.5145,0.5145,0.5145,0.5144,0,0.532,0.5308,0.5305,0.5292,0.5289,0.527,0.5258,0.5257,0.5256,0.5244,0.5239,0.5235,0.523,0.5211,0.5204,0.5207,0.5197,0.5206,0.5206,0.5204,0.5159,0.5157,0.5214,0.5214,0.5214,0.5214,0.5214,0.5213,0.5348,0.5354,0.5341,0.5342,0.533,0.5328,0.5324,0.5316,0.5307,0.5303,0.5299,0.5286,0.5272,0.5264,0.5258,0.5253,0.5252,0.5264,0.5255,0.5214,0.5207,0.5201,0.5199,0.5263,0.5264,0.5301,0.5301,0.5301]}]]